FW7501 Weather Reports


time (UTC)temp
F
wind
direction
speed
knots
gust
knots
rain 1hr
in
rain 24hr
in
rain mn
in
humidity
%
barometer
mb
20221207151040 44 233 5.2 10.4 0.00 0.04 0.00 85 1009.8
20221207150052 44 233 5.2 9.6 0.00 0.04 0.00 86 1009.8
20221207144103 44 208 3.5 7.8 0.00 0.04 0.00 86 1010.0
20221207143108 44 208 3.5 7.8 0.00 0.04 0.00 85 1010.0
20221207142038 44 209 5.2 10.4 0.00 0.04 0.00 85 1010.0
20221207141043 44 202 4.3 8.7 0.00 0.04 0.00 84 1010.1
20221207140057 44 205 4.3 7.8 0.00 0.04 0.00 84 1010.0
20221207135032 44 193 3.5 7.8 0.00 0.04 0.00 83 1010.0
20221207134030 45 202 4.3 8.7 0.00 0.04 0.00 82 1010.0
20221207133034 45 185 6.1 11.3 0.00 0.04 0.00 82 1010.1
20221207132040 45 235 6.1 11.3 0.00 0.04 0.00 81 1010.1
20221207131042 46 175 6.1 13.0 0.00 0.04 0.00 81 1010.0
20221207130114 46 191 8.7 15.6 0.00 0.04 0.00 80 1010.1
20221207125029 47 214 8.7 13.0 0.00 0.04 0.01 79 1010.0
20221207124102 47 210 10.4 14.8 0.00 0.04 0.01 79 1010.0
20221207123042 47 228 8.7 14.8 0.00 0.04 0.01 80 1010.0
20221207122041 47 220 12.2 19.1 0.00 0.04 0.01 78 1009.9
20221207121033 47 193 8.7 14.8 0.00 0.04 0.01 78 1009.7
20221207120057 48 195 11.3 15.6 0.00 0.04 0.01 78 1009.5
20221207115049 48 228 8.7 14.8 0.00 0.04 0.01 81 1009.4
20221207114045 49 215 10.4 17.4 0.00 0.04 0.01 82 1009.2
20221207113056 49 228 10.4 20.0 0.00 0.04 0.01 82 1009.0
20221207112029 49 221 11.3 15.6 0.00 0.04 0.01 85 1008.7
20221207111036 49 234 9.6 16.5 0.00 0.04 0.01 85 1008.7
20221207110053 50 236 12.2 20.9 0.00 0.04 0.01 85 1008.6
20221207105042 50 218 10.4 16.5 0.04 0.04 0.01 86 1008.5
20221207104029 50 208 8.7 15.6 0.04 0.04 0.01 88 1008.2
20221207103028 50 215 8.7 15.6 0.04 0.04 0.01 88 1008.1
20221207102101 50 249 7.8 16.5 0.04 0.04 0.01 88 1007.9
20221207101040 50 214 7.0 15.6 0.04 0.04 0.01 89 1007.8
20221207100058 50 233 12.2 20.0 0.04 0.04 0.01 89 1007.7
20221207095044 50 238 12.2 22.6 0.00 0.00 0.00 90 1007.5
20221207094049 51 219 8.7 15.6 0.00 0.00 0.00 90 1007.3
20221207093039 51 237 11.3 18.2 0.00 0.00 0.00 90 1007.1
20221207092043 51 216 11.3 18.2 0.00 0.00 0.00 88 1006.8
20221207090034 55 241 11.3 20.0 0.00 0.00 0.00 77 1006.0
20221207085045 56 218 15.6 24.3 0.00 0.00 0.00 73 1005.7
20221207084027 57 218 13.0 22.6 0.00 0.00 0.00 70 1005.3
20221207083027 59 241 12.2 19.1 0.00 0.00 0.00 63 1004.9
20221207081033 60 199 6.1 10.4 0.00 0.00 0.00 69 1004.4
20221207080044 59 195 7.0 15.6 0.00 0.00 0.00 69 1004.4
20221207075047 58 197 8.7 13.9 0.00 0.00 0.00 72 1004.2
20221207074029 60 185 7.8 13.9 0.00 0.00 0.00 69 1004.1
20221207073036 61 198 7.8 13.0 0.00 0.00 0.00 69 1003.9
20221207072040 61 202 8.7 15.6 0.00 0.00 0.00 70 1003.8
20221207071032 61 206 11.3 18.2 0.00 0.00 0.00 70 1003.7
20221207070049 61 170 11.3 16.5 0.00 0.00 0.00 71 1003.7
20221207065032 60 194 7.8 13.9 0.00 0.00 0.00 73 1003.8
20221207064029 61 166 8.7 13.0 0.00 0.00 0.00 73 1003.7
20221207063042 61 185 10.4 14.8 0.00 0.00 0.00 72 1003.7
20221207062040 62 165 10.4 14.8 0.00 0.00 0.00 73 1003.8
20221207061050 62 185 10.4 18.2 0.00 0.00 0.00 75 1003.7
20221207060040 61 199 10.4 13.9 0.00 0.00 0.00 76 1003.7
20221207055047 61 197 11.3 15.6 0.00 0.00 0.00 76 1003.7
20221207054026 62 170 12.2 17.4 0.00 0.00 0.00 75 1003.6
20221207053052 60 193 12.2 17.4 0.00 0.00 0.00 79 1003.5
20221207052034 61 158 10.4 15.6 0.00 0.00 0.00 76 1003.4
20221207051044 63 200 9.6 13.9 0.00 0.00 0.00 76 1003.3
20221207050035 61 189 10.4 13.9 0.00 0.00 0.00 76 1003.3
20221207045048 62 185 8.7 13.0 0.00 0.00 0.00 75 1003.3
20221207044051 63 192 7.8 11.3 0.00 0.00 0.00 73 1003.3
20221207043034 63 189 5.2 9.6 0.00 0.00 0.00 73 1003.1
20221207042044 62 208 8.7 10.4 0.00 0.00 0.00 73 1003.4
20221207041033 63 209 4.3 12.2 0.00 0.00 0.00 74 1003.5
20221207040047 63 206 3.5 9.6 0.00 0.00 0.00 75 1003.3
20221207035047 63 196 7.0 12.2 0.00 0.00 0.00 75 1003.3
20221207034031 63 207 5.2 13.0 0.00 0.00 0.00 76 1003.4
20221207033039 63 175 8.7 12.2 0.00 0.00 0.00 75 1003.4
20221207032043 63 195 9.6 13.9 0.00 0.00 0.00 75 1003.5
20221207031035 63 211 8.7 13.0 0.00 0.00 0.00 75 1003.5
20221207030049 64 180 7.8 13.0 0.00 0.00 0.00 74 1003.5
20221207025050 64 160 9.6 14.8 0.00 0.00 0.00 76 1003.5
20221207024051 64 189 8.7 13.9 0.00 0.00 0.00 77 1003.5
20221207023037 64 198 8.7 13.9 0.00 0.00 0.00 75 1003.4
20221207022050 64 180 7.0 11.3 0.00 0.00 0.00 76 1003.5
20221207021037 66 151 3.5 7.0 0.00 0.00 0.00 74 1003.4
20221207020043 65 227 6.1 10.4 0.00 0.00 0.00 72 1003.5
20221207015046 66 206 7.0 12.2 0.00 0.00 0.00 72 1003.5
20221207014029 65 163 5.2 11.3 0.00 0.00 0.00 74 1003.5
20221207013033 65 180 10.4 13.9 0.00 0.00 0.00 72 1003.7
20221207012058 67 193 7.8 12.2 0.00 0.00 0.00 72 1003.5
20221207011038 66 206 5.2 11.3 0.00 0.00 0.00 72 1003.6
20221207010105 66 191 7.8 11.3 0.00 0.00 0.00 74 1003.6
20221207005049 67 231 7.8 11.3 0.00 0.00 0.00 72 1003.6
20221207003049 67 247 4.3 7.8 0.00 0.00 0.00 69 1003.5
20221207002041 66 315 2.6 6.1 0.00 0.00 0.00 69 1003.4
20221207001042 65 335 3.5 7.8 0.00 0.00 0.00 70 1003.5